SCP
0 0 0 -0 0 0 0 0 0 1 1 1 1 2 2 2 1 1 1 1 1 1 0 1 1 1 1 1 1 1 0 0
0 0 0 0 0 0 0 0 0 1 1 1 1 1 1 1 1 1 2 1 1 1 1 1 1 0 1 1 1 1 1 0
0 0 0 0 0 0 0 0 0 1 1 1 1 2 1 1 1 1 2 1 1 1 1 1 1 1 1 1 1 1 1 1
0 0 0 0 0 0 0 0 1 1 1 2 2 2 2 1 1 1 1 1 1 1 1 1 1 1 0 1 1 1 1 1
0 0 0 0 0 0 0 0 0 1 2 2 2 1 1 1 1 1 1 1 1 1 1 1 1 1 2 2 2 1 1 1
0 0 0 0 0 0 0 0 0 2 2 2 1 1 1 1 1 0 0 1 1 1 1 1 1 1 1 1 1 1 1 1
0 0 0 0 0 0 0 0 0 1 1 1 1 1 1 1 1 1 1 1 1 1 1 1 1 0 0 1 1 1 1 1
0 0 0 0 0 0 0 0 0 0 0 1 1 1 1 1 1 1 1 1 0 0 1 0 0 0 1 1 1 1 1 1
0 0 0 0 0 0 0 0 0 0 0 1 1 1 1 1 1 1 1 0 0 0 1 1 0 0 1 1 1 1 1 0
0 0 0 0 0 0 0 0 0 0 0 1 1 1 1 1 1 1 0 0 0 0 0 0 1 1 2 1 1 1 0 0
0 0 0 0 0 0 0 0 0 0 0 1 2 1 1 1 1 1 0 0 0 0 0 0 0 1 1 1 1 0 0 0
0 0 0 0 0 0 0 0 0 0 1 1 1 1 1 1 0 0 0 0 0 0 0 0 1 1 0 1 1 0 0 0
0 0 0 0 0 0 0 0 0 0 0 1 1 1 1 1 1 0 1 1 1 0 0 1 1 0 0 1 0 0 0 0
0 0 0 0 0 0 0 0 0 0 0 1 1 0 1 1 1 1 1 1 1 1 0 1 0 0 0 0 0 0 0 0
0 0 0 0 0 0 0 0 0 0 1 1 0 0 1 1 1 1 1 1 1 0 0 0 0 0 0 0 0 0 0 0
0 0 0 0 0 0 0 0 1 1 0 0 0 0 1 0 0 1 0 0 0 0 0 0 0 0 0 0 0 0 0 0
0 0 0 0 0 0 0 0 1 0 0 0 0 0 0 0 0 0 0 0 0 0 0 0 0 0 0 0 0 0 0 0
0 0 0 0 0 0 0 0 0 0 0 0 0 0 0 0 0 0 0 0 0 0 0 0 0 0 0 0 0 0 0 0
0 0 0 0 0 0 0 0 0 0 0 0 0 0 0 0 0 0 0 0 0 0 0 0 0 0 0 0 0 0 0 0
0 0 0 0 0 0 0 0 0 0 0 0 0 0 0 0 0 0 0 0 0 0 0 0 0 0 0 0 0 0 0 0
Wind_Speed_500mb
19 20 27 37 39 48 44 53 56 60 62 67 74 78 80 82 82 81 77 75 67 60 55 47 40 32 26 23 25 23 19 17
41 40 34 35 25 28 38 47 60 62 67 66 69 79 84 86 88 88 85 82 78 72 63 55 45 37 30 28 29 27 24 21
49 38 42 39 43 41 36 40 42 47 56 66 70 76 86 87 90 90 92 92 88 79 68 57 48 39 37 34 32 30 29 26
61 57 51 51 50 50 42 39 40 44 48 59 58 71 77 88 89 86 94 96 95 84 72 62 53 46 44 37 34 32 33 33
73 66 56 51 54 42 41 47 53 55 54 55 60 60 71 78 83 84 91 94 95 84 77 69 56 52 52 49 43 35 35 36
63 51 48 50 53 54 45 58 56 56 56 53 53 56 66 69 72 81 86 84 80 78 76 74 59 55 55 48 35 31 34 36
67 67 65 58 53 52 61 60 60 57 57 50 52 58 64 61 67 76 78 71 65 54 67 69 59 59 57 41 38 29 30 33
79 74 69 72 74 72 59 55 54 53 54 51 55 59 60 61 66 71 68 56 44 42 50 55 60 55 51 42 35 25 26 32
67 87 81 73 65 55 53 47 44 45 43 49 52 55 58 62 62 62 51 41 33 37 43 50 49 53 44 36 28 24 31 34
70 80 74 71 67 60 51 48 47 52 51 47 46 48 54 55 57 50 34 30 33 37 38 39 44 43 43 32 28 30 34 35
76 80 71 60 55 53 49 51 48 46 53 52 46 47 45 46 48 43 33 32 30 33 32 31 38 38 34 29 29 33 33 31
85 83 76 65 55 53 52 57 55 55 52 51 49 46 44 42 32 30 31 31 32 31 34 35 34 31 26 24 31 32 29 21
68 71 75 72 71 70 65 57 56 53 41 43 41 41 38 29 26 31 36 35 31 33 36 32 29 22 24 30 29 26 23 23
57 57 48 43 39 37 42 47 49 46 38 33 33 31 27 28 37 43 40 36 35 33 32 29 27 24 27 26 23 22 22 21
38 39 41 36 35 38 42 38 35 32 30 29 28 23 22 31 42 46 43 35 38 33 30 27 24 24 25 22 19 18 17 16
37 36 32 32 32 28 20 23 28 33 36 36 32 31 33 40 43 39 30 40 34 28 30 25 23 24 22 20 17 17 17 14
30 24 28 20 15 25 31 38 43 43 42 40 39 38 40 38 37 35 37 33 27 24 24 23 21 19 19 19 18 19 18 16
8 18 23 27 36 41 44 43 44 45 43 44 45 42 40 38 38 35 31 27 24 21 19 18 18 16 15 15 19 21 22 23
10 23 37 43 44 46 46 45 47 47 47 47 45 43 40 35 32 31 27 23 19 17 21 20 16 10 7 12 16 20 24 25
6 28 44 46 48 48 49 49 50 49 49 48 43 39 36 34 32 27 24 21 22 24 24 18 11 5 7 12 15 19 27 25
Wind_Direction_500mb
273 277 273 294 268 261 275 272 266 262 258 258 255 250 247 245 243 241 238 239 236 231 231 229 231 236 241 252 255 255 258 269
270 274 278 289 244 266 272 277 273 267 262 264 267 259 255 250 247 245 241 240 238 235 233 234 237 237 247 252 254 256 262 263
280 276 268 264 269 277 274 287 278 273 268 267 272 269 261 255 252 251 249 245 242 238 235 236 238 247 252 256 259 263 264 262
286 284 271 268 269 272 277 280 281 277 279 279 279 271 267 259 256 255 255 248 246 240 238 238 239 243 250 256 259 260 262 261
280 280 278 272 267 265 276 286 289 290 289 279 273 269 268 263 258 258 255 253 248 244 239 238 241 243 246 246 248 250 259 264
274 272 270 271 271 279 286 292 288 291 286 285 273 260 264 264 259 258 256 256 253 247 238 240 241 244 245 248 243 243 255 262
270 272 278 276 276 281 292 288 291 287 282 276 272 259 258 259 255 253 255 256 257 252 242 243 237 237 238 247 239 251 260 262
277 280 277 276 279 281 281 285 288 284 278 271 265 255 255 252 251 249 255 260 259 246 240 234 231 233 236 233 236 251 254 260
275 279 279 279 275 270 268 283 287 292 282 269 256 250 249 248 247 252 255 257 250 235 224 224 221 224 230 226 239 251 261 265
275 279 282 277 269 260 266 277 291 289 283 275 260 250 251 249 245 249 249 240 227 215 215 214 212 214 212 225 243 257 262 260
277 280 276 277 272 258 262 280 286 281 272 265 254 247 250 246 244 242 230 220 204 203 202 195 191 191 204 228 251 258 258 264
269 270 272 271 272 271 272 275 278 280 269 252 245 245 244 246 250 233 208 197 192 189 168 174 184 197 211 248 252 259 258 247
264 266 271 270 269 270 271 268 268 266 262 242 236 235 236 235 223 196 186 181 178 164 174 179 187 203 236 250 261 262 251 239
267 276 278 269 261 258 257 256 254 253 243 228 222 225 219 205 187 177 171 169 168 170 177 187 200 222 243 258 257 250 246 239
273 271 273 261 256 258 259 246 237 225 208 198 187 180 177 183 174 170 165 170 169 175 182 192 218 236 251 247 241 240 239 236
296 270 266 250 254 249 215 193 180 172 165 163 155 154 154 164 164 163 159 160 162 171 186 208 229 246 238 224 231 230 232 230
287 248 232 231 190 151 153 151 152 151 153 151 146 142 151 153 154 149 147 151 164 183 203 224 238 218 216 227 232 226 227 228
235 193 183 157 147 147 146 147 147 147 147 145 143 146 149 149 150 151 154 163 177 198 212 210 190 196 209 223 232 230 229 226
171 157 150 149 147 146 144 145 145 142 143 143 145 146 147 150 154 157 163 173 185 191 173 170 171 191 225 240 240 241 227 231
169 154 152 150 146 146 146 145 142 142 143 143 143 145 149 152 157 165 173 177 171 159 153 156 168 218 254 265 250 251 236 223
Wind_Speed_850mb
19 20 27 37 39 48 44 53 56 60 62 67 74 78 80 82 82 81 77 75 67 60 55 47 40 32 26 23 25 23 19 17
41 40 34 35 25 28 38 47 60 62 67 66 69 79 84 86 88 88 85 82 78 72 63 55 45 37 30 28 29 27 24 21
49 38 42 39 43 41 36 40 42 47 56 66 70 76 86 87 90 90 92 92 88 79 68 57 48 39 37 34 32 30 29 26
61 57 51 51 50 50 42 39 40 44 48 59 58 71 77 88 89 86 94 96 95 84 72 62 53 46 44 37 34 32 33 33
73 66 56 51 54 42 41 47 53 55 54 55 60 60 71 78 83 84 91 94 95 84 77 69 56 52 52 49 43 35 35 36
63 51 48 50 53 54 45 58 56 56 56 53 53 56 66 69 72 81 86 84 80 78 76 74 59 55 55 48 35 31 34 36
67 67 65 58 53 52 61 60 60 57 57 50 52 58 64 61 67 76 78 71 65 54 67 69 59 59 57 41 38 29 30 33
79 74 69 72 74 72 59 55 54 53 54 51 55 59 60 61 66 71 68 56 44 42 50 55 60 55 51 42 35 25 26 32
67 87 81 73 65 55 53 47 44 45 43 49 52 55 58 62 62 62 51 41 33 37 43 50 49 53 44 36 28 24 31 34
70 80 74 71 67 60 51 48 47 52 51 47 46 48 54 55 57 50 34 30 33 37 38 39 44 43 43 32 28 30 34 35
76 80 71 60 55 53 49 51 48 46 53 52 46 47 45 46 48 43 33 32 30 33 32 31 38 38 34 29 29 33 33 31
85 83 76 65 55 53 52 57 55 55 52 51 49 46 44 42 32 30 31 31 32 31 34 35 34 31 26 24 31 32 29 21
68 71 75 72 71 70 65 57 56 53 41 43 41 41 38 29 26 31 36 35 31 33 36 32 29 22 24 30 29 26 23 23
57 57 48 43 39 37 42 47 49 46 38 33 33 31 27 28 37 43 40 36 35 33 32 29 27 24 27 26 23 22 22 21
38 39 41 36 35 38 42 38 35 32 30 29 28 23 22 31 42 46 43 35 38 33 30 27 24 24 25 22 19 18 17 16
37 36 32 32 32 28 20 23 28 33 36 36 32 31 33 40 43 39 30 40 34 28 30 25 23 24 22 20 17 17 17 14
30 24 28 20 15 25 31 38 43 43 42 40 39 38 40 38 37 35 37 33 27 24 24 23 21 19 19 19 18 19 18 16
8 18 23 27 36 41 44 43 44 45 43 44 45 42 40 38 38 35 31 27 24 21 19 18 18 16 15 15 19 21 22 23
10 23 37 43 44 46 46 45 47 47 47 47 45 43 40 35 32 31 27 23 19 17 21 20 16 10 7 12 16 20 24 25
6 28 44 46 48 48 49 49 50 49 49 48 43 39 36 34 32 27 24 21 22 24 24 18 11 5 7 12 15 19 27 25
Wind_Direction_850mb
273 277 273 294 268 261 275 272 266 262 258 258 255 250 247 245 243 241 238 239 236 231 231 229 231 236 241 252 255 255 258 269
270 274 278 289 244 266 272 277 273 267 262 264 267 259 255 250 247 245 241 240 238 235 233 234 237 237 247 252 254 256 262 263
280 276 268 264 269 277 274 287 278 273 268 267 272 269 261 255 252 251 249 245 242 238 235 236 238 247 252 256 259 263 264 262
286 284 271 268 269 272 277 280 281 277 279 279 279 271 267 259 256 255 255 248 246 240 238 238 239 243 250 256 259 260 262 261
280 280 278 272 267 265 276 286 289 290 289 279 273 269 268 263 258 258 255 253 248 244 239 238 241 243 246 246 248 250 259 264
274 272 270 271 271 279 286 292 288 291 286 285 273 260 264 264 259 258 256 256 253 247 238 240 241 244 245 248 243 243 255 262
270 272 278 276 276 281 292 288 291 287 282 276 272 259 258 259 255 253 255 256 257 252 242 243 237 237 238 247 239 251 260 262
277 280 277 276 279 281 281 285 288 284 278 271 265 255 255 252 251 249 255 260 259 246 240 234 231 233 236 233 236 251 254 260
275 279 279 279 275 270 268 283 287 292 282 269 256 250 249 248 247 252 255 257 250 235 224 224 221 224 230 226 239 251 261 265
275 279 282 277 269 260 266 277 291 289 283 275 260 250 251 249 245 249 249 240 227 215 215 214 212 214 212 225 243 257 262 260
277 280 276 277 272 258 262 280 286 281 272 265 254 247 250 246 244 242 230 220 204 203 202 195 191 191 204 228 251 258 258 264
269 270 272 271 272 271 272 275 278 280 269 252 245 245 244 246 250 233 208 197 192 189 168 174 184 197 211 248 252 259 258 247
264 266 271 270 269 270 271 268 268 266 262 242 236 235 236 235 223 196 186 181 178 164 174 179 187 203 236 250 261 262 251 239
267 276 278 269 261 258 257 256 254 253 243 228 222 225 219 205 187 177 171 169 168 170 177 187 200 222 243 258 257 250 246 239
273 271 273 261 256 258 259 246 237 225 208 198 187 180 177 183 174 170 165 170 169 175 182 192 218 236 251 247 241 240 239 236
296 270 266 250 254 249 215 193 180 172 165 163 155 154 154 164 164 163 159 160 162 171 186 208 229 246 238 224 231 230 232 230
287 248 232 231 190 151 153 151 152 151 153 151 146 142 151 153 154 149 147 151 164 183 203 224 238 218 216 227 232 226 227 228
235 193 183 157 147 147 146 147 147 147 147 145 143 146 149 149 150 151 154 163 177 198 212 210 190 196 209 223 232 230 229 226
171 157 150 149 147 146 144 145 145 142 143 143 145 146 147 150 154 157 163 173 185 191 173 170 171 191 225 240 240 241 227 231
169 154 152 150 146 146 146 145 142 142 143 143 143 145 149 152 157 165 173 177 171 159 153 156 168 218 254 265 250 251 236 223